Marshfield, WI

12:26 PM CDT on July 25, 2016 (GMT -0500)
Marshfield Municipal

Weather History for KMFI - October, 2012

Change the Weather History Date:

Tuesday, October 2, 2012

  Actual Average Record
Temperature  
Mean Temperature 58 °F -  
Max Temperature 70 °F 67 °F 88 °F (1976)
Min Temperature 46 °F 39 °F 19 °F (2003)
Degree Days  
Heating Degree Days 7    
Growing Degree Days 8 (Base 50)    
Moisture  
Dew Point 42 °F    
Average Humidity 62    
Maximum Humidity 90    
Minimum Humidity 33    
Precipitation  
Precipitation 0.00 in - - ()
Sea Level Pressure  
Sea Level Pressure 29.93 in    
Wind  
Wind Speed 6 mph (NE)    
Max Wind Speed 10 mph    
Max Gust Speed -    
Visibility 10 miles    
Events      
Averages and records for this station are not official NWS values.
T = Trace of Precipitation, MM = Missing Value Source: NWS Daily Summary

Daily Weather History Graph

Daily Weather History Graph

Search for Another Location

Airport or City:

Trip Planner

Search our weather history database for the weather conditions in past years. The results will help you decide how hot, cold, wet, or windy it might be!

Date:

Astronomy

Oct. 02, 2012 Rise Set
Actual Time 7:00 AM CDT 6:38 PM CDT
Civil Twilight 6:31 AM CDT 7:07 PM CDT
Nautical Twilight 5:57 AM CDT 7:41 PM CDT
Astronomical Twilight 5:23 AM CDT 8:15 PM CDT
Moon 7:42 PM CDT (10/2) 9:35 AM CDT (10/2)
Length of Visible Light 12h 36m
Length of Day
11h 38m
Waning Gibbous, 94% of the Moon is Illuminated
Oct 2
Waning Gibbous
Oct 8
Last Quarter
Oct 15
New
Oct 21
First Quarter
Oct 29
Full

Hourly Weather History & Observations

Time (CDT) Temp. Dew Point Humidity Pressure Visibility Wind Dir Wind Speed Gust Speed Precip Events Conditions
12:54 AM 55.0 °F 48.9 °F 80% 29.90 in 10.0 mi North 8.1 mph - N/A   Partly Cloudy
1:54 AM 54.0 °F 48.0 °F 80% 29.90 in 10.0 mi NNE 6.9 mph - N/A   Clear
2:54 AM 51.1 °F 46.9 °F 86% 29.90 in 10.0 mi NNE 4.6 mph - N/A   Clear
3:54 AM 50.0 °F 46.0 °F 86% 29.91 in 9.0 mi North 9.2 mph - N/A   Clear
4:54 AM 48.9 °F 46.0 °F 90% 29.91 in 10.0 mi North 6.9 mph - N/A   Clear
5:54 AM 48.9 °F 46.0 °F 90% 29.94 in 10.0 mi North 8.1 mph - N/A   Clear
6:54 AM 48.9 °F 45.0 °F 86% 29.96 in 10.0 mi NNE 8.1 mph - N/A   Clear
7:54 AM 50.0 °F 45.0 °F 83% 29.97 in 10.0 mi NE 6.9 mph - N/A   Clear
8:54 AM 53.1 °F 44.1 °F 71% 29.97 in 10.0 mi ENE 8.1 mph - N/A   Clear
9:54 AM 57.0 °F 42.1 °F 57% 29.97 in 10.0 mi East 10.4 mph - N/A   Clear
10:54 AM 62.1 °F 37.9 °F 41% 29.96 in 10.0 mi East 10.4 mph - N/A   Clear
11:54 AM 63.0 °F 37.0 °F 38% 29.95 in 10.0 mi Variable 5.8 mph - N/A   Clear
12:54 PM 66.0 °F 39.0 °F 37% 29.94 in 10.0 mi Variable 4.6 mph - N/A   Clear
1:54 PM 66.0 °F 39.0 °F 37% 29.91 in 10.0 mi SSE 3.5 mph - N/A   Clear
2:54 PM 66.9 °F 39.0 °F 36% 29.90 in 10.0 mi South 4.6 mph - N/A   Clear
3:54 PM 68.0 °F 37.9 °F 33% 29.89 in 10.0 mi Calm Calm - N/A   Clear
4:54 PM 68.0 °F 37.9 °F 33% 29.89 in 10.0 mi Calm Calm - N/A   Clear
5:54 PM 66.0 °F 39.0 °F 37% 29.90 in 10.0 mi NE 4.6 mph - N/A   Clear
7:54 PM 55.9 °F 39.9 °F 55% 29.92 in 10.0 mi SE 3.5 mph - N/A   Clear
8:54 PM 54.0 °F 39.9 °F 59% 29.93 in 10.0 mi Calm Calm - N/A   Clear
9:54 PM 50.0 °F 39.9 °F 68% 29.94 in 10.0 mi Calm Calm - N/A   Clear
10:54 PM 48.9 °F 41.0 °F 74% 29.94 in 10.0 mi Calm Calm - N/A   Clear
11:54 PM 46.9 °F 39.9 °F 77% 29.95 in 10.0 mi Calm Calm - N/A   Clear